GFSMW_250_spd_000.txt.gz
Wind_Speed
20 22 25 29 30 30 32 32 36 38 39 40 43 46 49 51 50 47 46 47 50 54 54 53 54 58 63 66 68 72 74 74 70 72 64 65 72 76 83 88 98 100 103
26 27 30 32 34 35 39 39 39 42 42 44 46 49 51 53 54 55 55 56 59 59 60 61 62 66 71 72 77 82 83 82 83 80 74 70 72 76 81 87 91 98 98
31 35 39 40 44 43 44 45 46 46 46 50 52 54 56 61 64 65 65 65 65 68 71 70 74 75 75 80 82 87 91 91 88 87 81 75 73 80 86 87 92 94 98
37 40 44 49 51 51 52 53 53 57 58 62 65 63 64 68 71 68 68 70 72 73 76 77 78 80 81 83 87 92 94 95 95 90 83 77 76 81 83 91 94 96 95
39 39 47 51 53 54 58 60 63 66 66 68 71 72 72 75 76 77 78 79 80 83 86 87 88 88 92 94 94 99 101 101 98 92 86 82 80 80 81 84 95 96 97
43 46 51 54 55 58 63 67 69 67 70 70 71 76 78 77 79 81 83 84 87 90 94 98 101 99 101 101 104 105 104 104 92 89 82 81 81 82 79 76 86 95 96
51 53 56 57 61 65 68 69 71 71 72 74 78 80 83 86 88 90 92 96 97 96 100 103 105 107 109 110 112 111 110 97 88 84 81 77 76 77 78 75 77 85 95
57 57 60 63 67 69 72 75 74 76 78 81 85 87 91 96 99 102 104 106 108 108 108 111 114 117 120 121 116 113 99 91 86 81 76 70 68 69 68 67 67 72 82
64 67 70 72 74 76 76 79 82 85 89 90 91 95 99 103 107 108 110 113 115 118 119 122 125 122 120 113 107 98 93 88 85 78 70 66 64 64 66 68 69 72 78
68 71 73 74 77 80 82 86 90 91 93 95 98 101 105 109 114 118 121 123 124 124 123 122 118 118 112 106 98 93 88 83 79 72 66 66 66 65 65 67 68 70 73
70 73 77 80 82 84 87 91 96 100 103 105 108 111 116 121 124 127 126 124 120 115 115 114 113 109 104 100 95 87 82 78 74 70 66 65 64 62 61 61 64 68 69
75 78 84 87 89 92 96 101 104 106 110 113 117 121 125 127 129 126 126 123 116 110 108 105 100 98 93 88 84 80 77 72 70 67 63 60 58 57 58 58 59 63 67
80 85 88 91 94 97 101 106 110 110 115 121 126 125 124 124 126 126 120 113 108 104 100 94 91 87 83 83 79 74 70 70 67 62 58 57 55 56 56 56 56 59 63
86 90 93 94 98 104 106 106 108 115 121 124 123 123 122 122 115 107 104 102 100 95 90 86 84 82 78 74 73 69 68 65 62 59 56 54 54 55 57 57 57 59 60
93 96 98 100 104 110 109 113 118 121 122 119 118 117 114 106 102 99 96 96 93 91 88 85 80 78 77 72 69 67 64 60 58 58 55 54 54 55 56 57 60 59 60
100 103 106 110 111 111 115 116 118 117 117 117 114 108 104 99 98 94 87 84 80 79 77 77 76 74 71 68 64 61 58 57 56 55 55 52 50 50 50 52 55 56 57
107 109 108 109 111 116 119 120 115 114 111 109 105 101 99 97 96 93 88 84 82 80 78 77 73 71 67 63 59 56 54 56 55 51 50 49 48 47 47 48 50 53 55
115 113 114 117 119 121 120 114 112 107 103 98 98 97 97 95 92 88 86 84 81 79 77 76 72 66 61 58 57 54 55 53 50 48 46 45 44 43 44 46 48 50 52
117 122 123 121 123 124 118 114 109 103 97 94 96 96 96 95 92 89 85 82 80 78 76 71 66 59 56 56 53 52 53 50 47 43 40 41 42 41 41 43 45 46 48
122 128 126 124 126 121 114 113 103 97 95 95 97 97 96 92 86 82 78 76 73 71 69 65 58 53 54 54 50 49 49 47 42 39 37 37 39 39 37 40 43 45 43
129 133 131 130 129 121 117 108 100 97 97 98 97 96 93 87 82 77 72 70 68 66 62 58 53 49 49 50 47 46 45 42 40 37 34 33 33 35 36 37 39 41 41
139 134 133 133 126 120 112 104 102 100 99 98 95 93 88 81 76 72 69 66 64 60 57 53 49 45 47 46 45 43 40 39 36 33 32 32 31 31 32 33 34 36 37
138 132 132 128 120 112 106 103 102 101 98 95 92 87 81 76 71 68 66 62 58 54 51 47 45 44 44 42 40 39 36 35 33 31 30 29 28 27 27 28 30 31 34
136 134 128 120 111 107 107 105 101 98 95 91 86 81 77 73 69 65 60 55 50 48 48 45 42 43 43 39 36 34 32 31 30 29 29 26 25 24 24 24 25 27 29
133 124 119 114 109 105 101 99 94 90 87 83 78 74 71 69 63 58 53 49 45 45 46 44 40 42 39 36 33 32 30 29 28 27 26 24 23 21 22 22 22 21 23
120 117 111 110 106 102 97 93 89 85 79 75 72 69 65 59 55 52 49 45 42 41 43 42 40 38 36 32 31 31 28 27 27 25 24 22 22 20 20 20 19 19 20

GFSMW_250_spd_006.txt.gz
Wind_Speed
39 40 45 45 45 48 48 47 48 50 53 54 55 56 57 60 61 60 61 60 61 62 63 65 67 67 66 68 70 72 73 74 74 73 75 75 75 76 74 72 72 70 70
42 43 44 46 47 52 55 54 53 55 55 58 59 58 58 59 62 65 68 69 69 70 71 73 75 77 79 80 82 82 83 83 84 84 84 82 83 84 82 79 79 80 80
44 50 48 49 51 54 56 60 58 61 62 60 61 62 63 66 69 72 74 76 79 80 82 84 87 91 93 95 96 97 97 96 95 96 95 92 92 94 94 91 90 89 89
46 48 54 53 53 56 58 58 61 61 62 63 64 67 71 72 74 77 80 83 87 90 93 96 97 100 103 105 105 106 104 104 101 102 104 108 104 101 100 101 99 96 97
49 56 53 54 54 56 57 58 60 63 65 70 72 73 76 79 82 87 89 91 94 98 102 107 109 108 108 107 106 107 106 102 101 99 99 100 103 99 96 95 99 100 102
52 50 49 52 54 57 61 63 66 69 74 77 81 84 88 92 94 97 100 103 104 106 109 111 111 110 109 108 107 103 100 94 94 97 95 93 95 96 99 97 94 99 104
48 49 52 55 58 60 62 66 71 76 80 84 87 90 93 95 100 103 103 105 107 108 110 111 110 106 107 106 101 97 92 85 82 81 82 82 84 85 88 89 89 93 97
50 53 55 58 61 64 68 72 77 82 84 87 90 94 98 101 102 106 110 110 111 113 112 110 108 106 102 98 96 90 84 77 73 75 74 75 77 79 80 81 81 84 89
55 58 60 62 66 71 75 80 82 85 88 90 94 98 103 107 111 113 115 113 114 117 112 110 106 99 94 91 89 84 79 75 72 71 74 73 72 71 72 77 78 76 74
59 63 66 69 73 78 83 84 85 87 92 95 99 104 110 111 114 114 115 116 113 113 112 106 98 94 88 85 83 81 77 75 73 72 72 74 75 73 71 70 71 72 69
68 72 75 79 82 83 83 84 92 97 98 104 108 113 117 119 121 120 119 117 113 112 105 99 94 90 88 84 83 80 78 75 76 76 75 75 75 73 72 69 65 64 64
73 77 78 76 77 82 87 93 98 103 109 111 116 120 125 128 128 125 124 120 114 108 101 98 94 89 86 84 83 80 77 78 79 80 79 77 75 72 71 69 66 63 64
73 74 80 85 87 91 96 102 107 111 115 119 122 125 130 133 132 129 121 113 104 102 98 94 93 90 86 82 79 78 77 76 76 76 76 75 74 70 66 65 65 65 64
81 85 88 92 96 100 106 110 113 116 122 127 129 131 137 140 127 118 110 104 101 99 97 94 90 88 84 80 77 75 73 72 73 73 71 69 67 65 65 64 65 64 64
85 90 95 100 106 109 112 116 121 124 129 133 137 137 137 125 115 107 102 100 99 96 93 89 85 81 77 75 73 71 68 67 65 65 62 60 59 59 60 59 62 61 60
92 98 102 105 108 114 118 124 130 134 136 137 137 134 127 114 108 105 102 97 94 90 84 81 77 74 71 67 64 62 61 60 59 58 57 55 55 55 54 55 56 59 59
99 104 110 115 120 122 125 130 137 141 140 135 133 121 111 109 108 105 100 94 88 83 79 75 71 68 65 61 59 57 57 57 56 54 53 53 53 50 50 52 54 56 57
106 111 117 119 124 129 136 141 142 140 134 129 121 114 109 107 104 99 92 85 80 77 74 69 64 62 60 56 56 55 55 54 51 47 46 48 49 46 48 50 51 52 52
113 118 122 126 131 136 143 143 136 130 123 118 114 110 107 103 97 91 85 80 76 71 67 64 62 59 59 55 53 51 50 47 42 40 40 43 45 45 46 48 48 47 44
122 125 127 139 145 143 147 136 127 121 115 112 112 108 101 94 90 85 80 75 70 67 65 63 58 54 52 49 48 46 44 40 38 37 39 41 45 44 45 44 43 44 43
124 134 138 149 147 145 137 128 119 114 112 112 106 97 91 87 83 78 73 70 67 64 59 56 52 48 45 46 44 42 39 38 37 37 38 41 42 42 40 39 39 40 41
131 138 146 153 145 136 129 121 116 113 110 101 93 87 84 80 76 72 69 66 61 57 54 52 50 44 41 43 44 40 36 37 37 37 37 38 38 38 35 35 36 37 37
138 144 151 150 136 126 122 116 115 111 101 92 87 83 79 74 70 67 63 60 56 53 52 51 49 46 41 41 42 38 36 38 36 35 35 34 33 32 33 35 32 34 33
146 151 148 134 125 118 114 111 107 98 92 86 81 77 73 70 65 61 56 54 53 52 50 49 46 44 42 42 39 36 36 35 34 33 32 30 29 30 32 32 29 27 29
154 148 132 123 117 111 110 105 98 91 87 81 76 73 69 64 62 58 54 53 50 50 50 48 45 43 38 37 34 33 33 31 29 30 28 27 27 28 29 29 27 24 24
145 131 122 114 112 111 105 97 91 86 82 77 72 68 64 62 58 56 54 50 48 47 47 44 42 38 35 31 29 28 28 27 26 27 26 26 26 26 27 27 25 24 23

GFSMW_250_spd_009.txt.gz
Wind_Speed
37 41 42 43 43 46 49 47 49 51 50 52 51 54 57 58 59 60 63 65 68 70 68 68 66 67 69 70 72 73 75 77 79 80 82 81 81 80 80 80 77 76 76
38 41 43 42 44 48 47 48 50 50 52 53 56 60 62 64 65 65 67 68 69 71 73 76 80 81 83 86 88 89 90 89 90 91 92 90 91 90 90 87 85 86 86
41 43 44 43 48 49 48 49 53 55 58 60 61 62 64 65 68 69 70 71 74 78 80 82 83 88 92 94 97 99 98 98 97 96 96 96 92 94 95 95 95 95 93
41 42 47 50 51 51 52 56 58 60 61 63 66 69 71 71 72 72 74 80 83 84 87 88 89 92 95 96 98 100 101 101 98 96 96 94 94 92 93 93 93 96 100
46 50 49 47 48 53 56 58 61 62 65 69 72 74 75 76 76 82 84 86 89 92 94 96 96 96 98 103 101 99 99 102 100 97 95 95 92 92 89 89 92 94 96
42 41 44 50 52 54 56 59 65 69 72 76 79 79 79 81 85 88 91 94 97 99 100 101 104 106 109 110 105 101 101 101 100 97 95 93 89 85 88 90 88 91 93
43 46 47 49 53 58 63 68 72 74 76 76 77 79 84 91 94 98 100 101 104 106 109 111 111 115 114 113 105 102 101 100 99 95 91 88 85 82 81 82 83 85 88
46 48 50 55 59 64 67 69 70 71 76 81 86 91 95 97 102 107 110 113 116 117 119 117 116 115 111 105 99 96 97 96 94 91 88 84 79 76 74 75 76 80 78
47 52 55 60 62 66 69 69 73 77 84 89 94 101 104 108 109 113 122 125 124 123 120 116 113 108 103 98 93 90 87 88 88 87 84 81 75 71 73 72 73 75 76
55 57 60 60 68 74 75 77 79 85 92 98 101 104 107 115 122 124 130 131 127 122 118 115 109 103 98 92 87 83 82 80 81 81 79 78 77 74 73 73 73 74 74
59 61 64 69 76 78 81 83 87 92 97 101 104 114 122 128 129 130 130 127 119 115 111 106 102 98 96 94 91 86 82 80 79 77 77 76 76 75 75 73 74 74 75
61 66 71 75 79 84 88 88 93 99 100 106 114 123 129 134 137 131 122 116 113 109 102 98 97 96 96 94 89 85 81 77 75 74 73 74 73 73 74 74 73 72 72
65 73 78 81 86 90 91 93 99 105 107 114 122 128 134 143 137 128 119 113 105 100 99 97 97 94 89 85 81 77 73 70 69 68 68 70 71 72 72 71 71 69 69
74 78 82 87 91 94 98 102 106 111 117 121 126 135 144 137 126 120 112 105 103 100 98 94 88 83 78 74 71 69 67 65 63 63 64 65 65 65 65 64 64 64 64
80 84 89 92 96 98 103 110 115 118 124 129 136 144 134 121 113 109 104 103 102 98 92 84 79 75 72 68 65 63 62 62 60 59 57 57 56 55 56 57 58 58 59
85 89 95 99 102 106 110 115 118 122 130 135 140 133 121 112 105 102 101 98 94 89 84 78 73 68 64 60 58 55 55 54 54 54 53 51 52 52 54 54 55 56 57
93 96 102 108 110 114 118 122 125 127 136 135 133 120 110 105 101 98 93 89 85 81 76 73 68 64 59 57 55 54 53 53 52 51 51 51 50 51 52 53 53 54 54
100 106 112 116 120 122 123 129 132 135 136 130 118 109 106 104 99 91 86 82 77 73 70 66 63 61 59 56 53 51 50 48 46 45 45 46 47 46 47 48 47 46 47
110 113 118 124 124 125 132 133 136 131 122 114 110 106 103 99 93 88 82 76 72 69 66 62 59 57 54 50 48 47 46 42 38 36 38 41 41 38 38 40 40 41 42
116 118 124 130 131 134 135 136 129 120 111 106 106 103 98 91 86 80 75 71 69 66 62 60 55 50 47 46 45 42 41 36 33 32 35 35 36 34 36 37 38 38 41
121 126 131 136 140 137 129 123 116 109 106 104 100 92 86 83 78 74 71 68 64 62 60 56 50 46 42 43 42 39 36 34 32 32 32 32 33 34 35 35 36 37 38
130 132 137 140 134 123 117 111 106 105 104 99 92 87 83 79 73 69 66 63 61 58 55 52 47 41 39 40 42 38 33 31 32 31 31 32 33 33 33 33 34 33 33
136 137 139 131 121 115 109 105 105 104 98 91 86 82 78 73 69 66 62 60 56 53 50 47 45 42 39 39 39 38 36 33 32 31 31 32 31 32 30 30 31 30 30
133 134 125 113 110 110 108 105 101 97 91 85 82 78 73 70 67 63 58 55 51 50 47 45 44 43 39 37 35 33 32 31 30 30 29 30 29 29 28 28 29 28 28
124 117 110 107 107 108 107 103 96 90 85 81 76 72 70 65 63 59 55 52 49 48 48 46 43 41 36 33 30 28 26 26 26 26 27 27 27 26 26 27 28 27 26
111 108 106 105 105 106 102 95 88 84 81 77 72 68 65 62 58 57 55 49 46 47 45 41 40 36 34 31 28 25 24 23 22 23 23 23 23 24 25 26 26 26 24

GFSMW_250_spd_012.txt.gz
Wind_Speed
35 36 36 38 39 36 39 40 45 44 42 45 49 51 53 54 57 60 62 64 67 69 67 65 70 74 73 73 75 78 78 77 78 76 77 76 77 82 82 81 80 78 78
35 36 38 41 41 42 45 44 42 44 48 51 52 55 58 60 64 67 68 69 68 67 67 73 76 78 80 83 87 89 90 90 90 89 89 83 86 87 88 91 89 86 85
34 39 42 45 47 43 40 44 48 50 51 54 57 61 64 65 66 66 66 68 70 73 76 78 81 82 84 85 88 93 96 97 98 101 98 98 92 97 94 90 95 91 90
40 44 47 43 40 43 46 49 49 51 56 60 61 63 63 64 66 69 71 77 81 83 86 90 93 92 95 100 102 103 103 104 101 103 103 100 101 99 99 95 95 95 90
42 42 37 44 45 47 48 48 52 56 59 61 65 67 69 70 73 77 79 83 86 88 96 100 104 106 107 111 110 108 109 107 105 105 101 102 98 104 101 99 100 95 93
39 42 45 46 47 48 51 54 59 63 66 70 72 74 78 80 83 87 88 90 93 97 102 108 111 116 119 121 117 111 108 106 102 103 104 104 104 98 100 99 100 100 89
44 47 48 49 50 53 57 60 65 69 73 78 78 81 83 87 89 94 96 98 100 106 112 116 120 124 127 125 117 109 105 104 101 100 101 101 102 100 96 95 97 96 96
48 46 48 51 56 58 60 64 68 71 74 78 82 85 88 89 96 99 103 108 111 115 118 122 125 128 129 121 112 104 98 97 94 92 93 93 92 92 90 89 90 89 90
49 50 53 56 58 59 62 68 71 76 81 84 87 92 95 100 104 106 109 113 121 123 128 131 131 127 119 113 105 98 93 90 89 89 91 90 91 90 88 86 85 83 85
51 54 58 59 61 63 69 73 78 82 86 91 96 99 103 106 110 112 118 122 129 128 135 136 132 123 112 105 99 93 93 92 91 89 90 91 86 90 89 85 83 80 80
56 59 61 64 64 70 78 83 86 91 94 98 102 106 110 114 119 123 126 131 134 135 135 129 119 108 102 100 99 96 90 85 82 80 79 80 79 78 80 79 80 79 75
60 64 66 68 73 80 85 90 93 97 102 107 109 113 117 121 126 130 136 135 135 131 121 113 106 103 101 98 93 88 83 78 74 72 71 69 69 69 69 71 73 73 73
67 70 72 76 81 86 89 93 98 103 107 111 116 120 126 130 133 135 137 134 126 118 110 106 102 99 94 88 82 78 75 72 70 68 65 63 62 62 61 62 64 67 67
69 73 77 81 87 91 95 100 106 110 115 120 122 127 130 134 136 133 126 118 112 108 105 100 94 89 84 79 76 73 69 66 63 59 56 55 56 56 56 57 58 60 62
75 79 82 86 91 97 101 107 112 115 122 126 130 134 133 131 124 117 111 106 104 103 97 89 84 79 74 72 68 65 62 59 57 54 52 50 50 50 50 51 53 54 56
79 84 88 94 98 102 107 115 117 124 131 136 133 127 123 115 109 105 104 102 99 94 87 81 76 72 68 65 61 59 56 55 53 51 48 47 48 47 47 48 50 49 51
84 91 95 98 102 109 114 121 129 134 133 125 121 116 109 105 104 103 99 95 88 83 79 74 70 66 61 59 55 54 52 49 46 44 43 42 42 44 45 46 47 48 47
91 96 99 105 112 116 122 129 136 133 124 118 112 106 104 103 101 97 91 85 80 75 71 67 64 60 56 53 51 51 49 46 43 40 39 40 40 39 40 41 42 42 43
97 102 109 113 117 126 129 133 130 119 114 108 105 103 102 98 93 87 81 77 74 70 67 64 60 56 53 49 48 47 46 44 40 37 36 37 38 36 35 36 36 34 35
108 111 117 120 128 131 132 125 115 111 108 105 102 100 96 89 83 79 75 71 68 66 63 60 54 49 47 47 45 43 42 39 33 32 35 36 33 31 31 32 31 30 33
114 119 124 129 130 129 119 113 110 107 105 102 98 94 87 82 78 74 70 66 63 62 59 53 47 45 44 44 44 43 38 34 31 31 33 32 31 29 29 28 28 29 31
121 126 126 124 124 117 111 109 107 105 102 98 92 86 80 76 73 70 65 62 61 58 53 49 46 43 43 42 42 41 38 35 31 32 32 30 29 28 27 26 27 28 28
126 125 122 119 112 110 109 105 103 101 97 91 84 79 76 73 69 65 61 60 57 54 50 47 46 44 42 41 39 37 33 31 30 29 29 27 27 26 25 25 26 27 27
123 119 114 107 107 107 105 102 99 94 89 83 79 75 72 69 65 61 59 57 54 51 49 48 46 43 40 37 33 30 27 25 25 25 26 25 25 24 24 24 25 26 26
112 107 106 104 103 102 99 96 91 86 82 78 76 73 69 65 62 60 58 52 50 49 48 46 44 41 36 32 28 25 23 21 21 21 21 22 22 22 23 23 24 24 25
108 107 106 104 101 98 95 90 84 80 76 74 71 68 65 63 60 59 54 50 47 47 46 43 41 36 33 29 26 23 21 19 18 18 19 19 19 21 22 22 22 24 25

GFSMW_250_spd_015.txt.gz
Wind_Speed
36 36 36 35 36 40 44 44 47 43 39 44 47 48 50 52 55 59 60 62 65 64 65 66 65 68 70 70 71 73 76 76 83 83 81 80 86 86 84 88 86 82 80
33 33 33 36 42 46 48 42 41 47 48 49 50 52 56 61 64 66 67 69 71 71 72 75 75 75 77 79 78 82 84 86 90 93 95 93 91 96 93 93 92 93 91
33 32 36 41 45 43 39 46 48 50 50 52 55 58 62 65 66 67 69 70 71 73 76 79 80 83 84 85 88 91 95 96 99 105 104 103 100 104 106 102 97 95 95
32 36 41 43 42 43 49 50 52 52 54 57 60 62 64 66 67 68 72 77 79 81 85 89 91 91 94 95 96 100 102 107 108 112 114 113 111 110 109 111 105 98 98
37 42 46 45 45 50 52 52 53 56 60 63 65 66 70 73 76 77 80 83 87 91 94 97 97 100 103 105 108 110 113 116 119 117 118 119 119 115 112 105 108 108 100
43 46 48 46 50 55 55 56 58 62 65 67 67 71 77 78 82 86 90 93 97 101 105 107 110 112 115 116 118 121 125 125 128 126 123 119 115 109 104 102 100 105 108
45 48 48 51 55 55 57 61 65 67 68 68 72 79 83 87 91 94 98 101 104 107 111 115 118 121 123 126 129 129 130 131 131 127 120 111 102 98 97 98 97 97 102
47 49 51 55 55 58 61 66 69 72 73 76 79 86 90 93 97 100 104 108 113 116 119 123 127 130 133 136 136 134 134 126 121 115 107 101 100 97 94 92 92 92 93
48 53 55 57 61 62 66 70 73 76 79 82 86 92 95 98 102 106 110 116 119 123 128 134 137 139 140 134 132 127 115 106 100 98 97 97 99 98 95 92 91 92 91
52 56 60 64 67 69 72 74 76 81 85 89 92 96 102 105 109 115 119 125 128 133 138 140 138 132 130 123 118 112 105 102 100 98 95 92 89 86 85 85 85 85 88
57 58 64 68 72 74 76 79 84 88 92 95 99 104 107 113 118 122 128 132 138 140 140 134 127 120 113 110 108 105 103 99 95 91 85 82 79 77 76 76 77 76 78
57 63 67 69 71 75 80 85 88 93 98 101 105 111 116 120 127 131 134 137 139 136 128 119 113 111 109 107 105 100 96 90 85 81 77 73 70 68 67 67 69 69 69
62 69 71 74 77 80 85 90 94 101 104 108 113 119 125 130 135 137 138 135 125 119 116 115 112 109 105 100 97 91 85 81 77 73 70 67 63 62 61 61 61 63 63
70 73 75 79 82 87 90 98 100 105 112 117 123 129 134 136 135 132 129 123 118 114 111 110 108 102 96 89 87 82 79 75 71 68 65 62 59 58 57 57 57 57 57
74 75 79 83 88 93 100 104 109 114 119 125 131 132 134 131 129 126 122 117 112 110 108 103 97 90 86 81 80 75 72 68 65 62 59 57 56 54 53 54 55 54 52
77 81 85 90 95 99 106 111 116 124 132 134 136 134 126 123 119 117 114 111 109 106 99 92 86 82 77 73 71 68 68 65 61 57 54 51 49 49 47 49 51 51 50
81 84 90 96 104 108 115 122 126 133 136 130 124 120 114 114 114 110 108 106 100 93 87 82 77 73 68 65 65 63 61 59 56 51 46 43 42 42 42 43 43 44 44
86 93 101 107 113 120 122 125 132 133 126 120 113 109 109 109 107 104 100 94 87 82 77 72 68 64 61 59 60 57 54 51 47 44 41 39 40 40 40 40 39 38 38
96 100 108 116 118 120 126 130 129 122 119 113 110 109 106 105 101 95 87 83 78 74 70 65 61 59 58 54 54 53 50 46 42 39 38 38 38 38 36 35 33 32 32
104 109 114 119 122 126 127 126 122 118 115 110 106 105 103 99 93 85 80 75 71 67 64 61 57 55 54 52 51 49 48 44 38 36 37 37 35 34 34 33 31 31 32
110 116 121 124 128 126 124 119 115 113 111 109 104 101 95 88 82 77 72 69 65 63 61 59 55 52 51 50 48 46 44 41 37 34 36 37 32 32 31 30 29 28 29
118 124 128 128 125 123 118 113 112 112 109 104 100 94 88 81 75 71 68 64 62 61 58 54 51 49 48 47 46 42 40 37 34 33 33 34 30 30 30 28 27 27 27
128 127 126 127 125 119 114 110 109 106 102 98 92 84 79 74 69 67 65 63 61 58 54 51 50 49 45 43 41 38 35 33 30 29 29 29 26 26 26 26 26 25 27
126 125 126 125 119 113 109 106 103 99 94 87 81 77 72 69 66 64 61 59 57 54 52 50 48 46 42 40 36 33 31 28 27 26 25 24 23 22 22 23 23 24 25
127 127 125 121 115 111 107 103 98 90 83 78 74 71 68 65 63 61 59 54 52 50 50 49 45 44 40 36 33 30 28 25 23 22 22 21 20 19 20 21 21 23 23
130 127 122 115 112 108 102 96 88 81 76 73 70 67 64 62 60 58 54 53 50 48 45 45 43 40 38 35 31 28 25 23 22 22 21 19 18 17 18 19 20 21 22

GFSMW_250_spd_021.txt.gz
Wind_Speed
32 33 36 38 38 36 38 39 38 41 44 49 55 56 56 59 63 63 63 62 63 66 71 72 73 72 73 76 80 82 82 84 88 86 85 84 87 87 89 89 85 82 80
34 36 37 37 39 40 41 43 45 48 51 56 59 59 62 65 68 68 65 67 68 72 74 75 76 78 80 82 85 89 92 93 97 97 96 93 94 95 94 94 95 95 92
34 38 37 38 42 43 45 48 51 54 56 58 60 61 66 69 69 72 73 76 78 79 81 84 86 87 90 92 95 96 99 102 106 110 108 106 104 102 104 106 107 106 104
37 44 43 43 42 45 50 52 53 56 61 61 61 63 66 69 72 75 77 81 84 86 90 92 93 97 100 103 106 108 110 114 114 116 119 120 119 117 110 111 112 115 116
40 41 42 45 47 51 53 56 58 60 59 60 66 68 70 74 79 82 85 87 90 95 99 100 103 106 110 116 120 123 124 124 123 121 120 124 126 124 112 102 113 116 117
42 39 39 44 49 54 58 61 63 62 62 64 66 67 72 79 85 88 90 94 98 103 106 110 111 114 120 125 127 128 129 127 123 123 122 119 117 118 113 104 95 96 102
39 40 42 45 48 52 55 58 63 67 68 71 73 75 80 85 89 92 96 100 105 109 112 116 122 127 131 133 132 131 127 125 120 116 109 106 100 97 96 93 89 86 87
40 42 45 48 50 50 52 56 59 65 71 75 79 84 89 93 96 99 105 110 114 116 121 128 133 132 133 132 128 126 123 116 110 107 103 96 93 92 87 85 84 85 83
41 43 46 49 53 56 58 60 64 70 76 81 86 92 95 100 103 107 114 119 122 125 129 137 135 130 127 125 121 117 112 109 108 105 99 94 90 87 82 82 80 77 78
44 47 49 53 56 58 61 66 70 76 81 86 90 96 100 104 106 112 118 124 127 128 135 137 132 127 122 118 112 109 107 104 100 95 91 87 82 79 77 71 70 68 65
48 52 55 56 59 63 67 72 76 81 85 90 95 100 105 109 114 120 127 131 132 133 134 126 124 120 115 110 107 103 99 94 88 84 81 79 74 71 69 66 65 62 61
52 56 57 59 61 65 70 74 79 85 90 95 99 105 112 118 122 128 135 134 133 133 128 122 118 113 110 107 103 99 95 88 82 78 75 72 69 66 63 60 59 58 56
54 56 58 61 67 72 78 82 87 92 98 102 107 112 119 125 128 126 124 121 118 117 120 115 112 107 103 98 94 89 84 80 76 72 69 66 63 62 59 55 55 54 53
53 56 62 65 71 75 82 87 93 99 102 107 114 120 128 126 126 124 120 115 109 108 109 104 101 95 90 86 83 80 77 74 71 68 64 61 58 56 55 53 52 52 51
59 63 66 71 75 80 87 93 100 106 112 117 124 128 130 130 124 121 114 112 104 101 98 93 88 84 79 76 76 75 71 69 67 65 62 59 56 53 50 50 49 46 44
62 65 70 77 82 88 94 100 106 113 119 124 127 132 129 129 124 117 115 112 100 95 88 83 78 76 74 71 71 71 68 66 63 61 59 57 53 49 46 45 44 41 39
66 71 77 83 89 94 98 103 110 117 122 129 133 133 130 124 117 111 106 100 93 91 85 80 77 74 71 68 67 67 64 61 58 55 51 50 48 46 41 41 40 37 35
70 77 84 90 93 98 104 109 116 123 128 132 132 127 127 118 109 106 102 93 89 85 82 77 74 71 68 65 62 59 57 56 53 50 49 48 47 43 40 41 40 37 35
77 84 89 94 100 106 110 115 122 129 134 135 129 125 120 114 106 98 93 89 83 80 77 73 69 65 64 61 58 55 53 51 49 46 42 42 42 39 37 38 38 36 34
85 90 95 101 106 110 115 121 128 132 135 131 128 123 111 103 97 92 85 82 79 76 73 69 65 61 59 56 55 52 50 48 45 43 40 38 36 34 34 33 32 32 32
90 95 101 107 111 115 122 128 134 136 131 128 125 114 105 97 92 84 80 77 73 69 68 64 61 59 56 54 51 48 47 44 41 38 34 32 30 29 28 27 27 28 27
96 101 106 110 116 123 128 133 135 134 130 126 113 105 98 92 84 80 76 72 69 66 64 62 59 56 54 51 48 46 44 41 37 33 30 28 26 25 24 24 23 23 24
102 106 109 115 123 128 131 137 133 131 127 115 105 98 93 85 79 75 71 68 66 63 60 59 57 54 53 50 47 44 40 37 34 32 29 26 23 22 21 20 20 21 22
108 112 118 122 127 130 134 134 132 127 120 108 99 94 87 81 76 72 68 65 62 59 56 55 54 52 51 48 44 41 38 35 32 30 27 24 22 20 19 18 18 19 20
115 121 125 127 131 132 133 133 129 124 113 102 95 89 81 77 72 69 66 63 59 56 54 53 51 49 46 45 44 41 37 33 29 27 25 22 20 20 18 17 17 18 19
121 125 128 129 130 131 130 129 125 113 103 96 89 82 77 73 69 66 63 59 56 54 52 49 46 43 43 42 41 38 34 31 28 25 23 20 19 18 18 17 17 18 19

GFSMW_250_spd_024.txt.gz
Wind_Speed
39 39 41 44 42 42 43 46 47 49 51 54 54 56 60 63 65 67 69 66 66 66 67 68 70 73 76 79 81 82 84 86 86 85 84 85 88 89 91 94 95 95 92
38 38 40 41 44 47 45 46 48 50 51 52 56 62 65 67 68 70 69 70 72 74 77 77 79 83 85 88 89 89 90 93 93 94 94 91 94 97 100 103 106 103 103
35 37 37 39 41 46 50 48 47 46 50 56 61 65 68 72 73 73 75 78 79 80 82 84 88 90 90 91 94 95 98 101 103 105 105 104 105 105 109 114 114 115 114
35 37 39 41 42 45 46 50 51 53 55 59 64 67 68 69 72 75 79 83 84 87 90 92 94 97 100 103 105 107 109 112 113 116 117 119 120 120 113 115 121 126 124
40 42 43 44 48 46 47 49 52 55 59 61 63 66 68 70 74 80 86 91 95 98 100 102 105 107 111 114 117 120 122 125 127 126 125 126 128 124 115 109 112 116 121
41 44 46 50 48 48 51 52 51 54 56 59 62 66 69 74 78 84 89 93 97 101 103 106 110 114 119 123 128 131 133 133 132 129 127 123 118 114 110 100 95 98 103
33 40 44 44 43 49 52 55 55 57 60 62 66 70 74 78 82 87 92 98 103 107 111 115 118 123 128 133 135 134 131 132 131 128 123 117 110 104 97 91 87 85 89
39 41 43 45 46 48 51 55 59 63 65 69 73 76 79 84 88 94 100 104 110 114 118 121 126 131 132 129 127 126 127 126 122 118 113 108 102 99 95 87 84 78 81
41 43 45 48 51 53 55 57 61 64 67 70 74 78 83 89 94 100 107 112 118 121 124 126 126 126 124 125 125 122 119 116 111 105 100 97 94 90 88 84 80 74 76
42 46 50 52 53 56 59 61 63 65 69 74 79 84 90 96 102 107 113 117 122 125 126 127 125 125 127 125 121 116 112 105 99 95 91 87 83 79 77 74 72 69 65
44 46 47 50 54 58 62 63 66 70 75 81 85 90 97 103 108 112 116 121 127 129 128 123 121 121 120 118 112 108 103 99 93 87 82 78 75 73 69 65 62 61 59
46 49 52 55 56 58 61 66 71 75 81 87 93 99 104 108 113 118 122 127 128 128 126 120 119 115 110 104 102 97 93 88 83 79 75 72 68 66 64 61 59 58 57
50 52 54 56 58 62 66 71 76 82 88 95 100 104 110 117 121 124 129 131 126 120 123 117 109 104 95 92 90 86 82 78 74 72 69 66 63 60 59 57 56 55 53
58 59 60 60 63 66 70 75 80 87 94 101 106 113 117 122 127 129 125 122 120 116 113 109 102 92 86 81 78 76 74 71 68 66 63 59 57 55 54 54 54 52 50
60 62 62 63 66 69 74 81 87 93 99 106 112 115 122 128 129 124 122 117 115 108 101 94 90 85 80 77 75 73 70 68 65 61 58 56 53 51 49 49 50 48 46
61 60 61 64 69 76 81 87 94 99 105 110 116 124 130 131 128 124 119 112 104 100 93 87 82 80 77 74 71 69 67 63 59 57 55 54 51 47 45 44 45 43 42
62 62 65 71 76 81 88 95 100 105 111 117 124 131 132 128 123 118 112 105 98 92 86 81 78 75 72 70 67 63 63 60 57 55 54 53 50 46 43 42 43 42 41
64 68 72 79 84 90 96 101 107 113 119 124 129 131 129 125 122 116 105 98 90 84 80 77 73 70 68 66 63 60 58 56 53 52 51 49 46 43 42 40 38 38 37
70 74 79 85 91 97 103 109 114 119 125 127 132 129 127 121 116 108 96 90 84 80 76 72 69 67 64 61 59 57 55 52 49 47 46 45 42 40 38 36 34 33 32
76 80 87 92 98 104 110 115 121 126 128 132 131 130 125 119 109 100 91 85 80 77 73 69 66 62 59 57 55 53 52 50 47 44 41 38 37 33 32 30 29 28 28
83 88 94 99 105 110 115 120 128 132 130 127 127 125 120 112 103 94 87 81 78 73 69 66 62 59 56 55 54 53 50 47 43 39 35 32 31 29 27 26 25 24 23
90 95 100 106 110 115 120 127 131 130 129 129 126 122 115 106 98 90 83 78 74 69 66 62 59 56 55 53 51 48 46 43 41 38 34 31 28 26 24 23 21 20 20
97 101 106 110 116 121 125 132 129 131 131 126 124 118 109 100 92 85 79 74 69 66 63 59 58 57 55 51 47 45 44 41 38 35 32 28 25 23 21 20 18 18 18
104 107 112 115 122 127 133 129 130 128 127 126 119 110 103 94 86 80 76 71 67 63 60 58 56 53 51 50 48 43 39 37 36 32 29 25 23 21 20 18 17 16 16
108 113 117 122 126 133 131 130 129 128 127 120 111 103 95 87 81 76 71 67 63 60 59 56 52 51 49 47 45 44 41 36 33 30 27 24 22 20 19 18 17 16 16
115 119 123 127 133 132 130 127 127 125 120 111 102 95 87 81 76 72 66 63 60 58 55 52 49 48 46 44 42 39 37 34 31 27 25 22 21 19 17 18 18 17 16

GFSMW_250_spd_030.txt.gz
Wind_Speed
54 55 52 49 46 45 44 36 32 49 54 64 67 70 72 74 75 75 75 78 77 76 75 75 76 78 79 78 79 81 82 84 85 86 87 89 90 92 95 97 100 100 100
41 42 44 43 42 32 33 37 45 50 56 60 67 74 74 73 75 75 76 77 76 76 76 77 78 80 83 84 84 85 87 89 90 91 93 95 96 99 102 104 106 106 107
35 38 39 40 38 43 50 52 55 58 61 63 67 71 70 71 72 74 74 75 77 78 80 82 83 85 88 89 90 93 95 96 101 103 104 104 105 105 107 110 111 111 111
36 37 39 42 46 50 53 55 57 59 61 65 69 67 69 70 71 73 75 77 80 83 84 86 88 90 92 95 98 101 105 108 112 115 119 119 119 117 116 117 115 116 120
36 36 39 40 40 41 42 45 48 51 57 62 63 65 69 71 73 75 78 79 81 84 87 88 91 95 98 103 107 111 115 118 120 124 125 125 123 126 126 119 119 118 120
29 31 34 37 41 44 47 48 51 53 58 61 64 67 69 71 73 76 79 82 84 87 91 94 97 102 105 108 114 119 122 125 126 127 125 124 122 121 118 109 100 101 107
33 35 38 41 42 45 50 53 54 57 59 62 65 67 69 72 75 77 80 84 88 91 95 99 103 108 113 119 123 125 126 124 123 123 121 119 119 116 109 101 91 85 91
35 37 40 42 46 49 52 53 56 58 60 62 65 68 72 74 76 78 82 87 91 95 100 105 110 116 119 122 127 127 124 121 121 121 118 116 112 107 100 94 86 78 77
39 41 44 46 49 51 54 56 59 61 63 66 69 72 74 76 78 82 85 89 96 102 107 112 115 117 121 122 122 121 118 117 117 115 110 104 99 95 91 86 80 74 71
42 46 48 50 53 55 58 61 63 64 67 69 71 72 73 75 79 84 90 96 104 108 110 111 114 117 119 118 117 117 114 112 109 103 98 93 89 85 81 79 77 73 67
47 49 51 53 56 57 59 60 61 63 65 67 69 71 74 80 85 91 97 101 105 109 113 115 115 117 116 115 111 107 105 103 98 93 90 85 81 79 76 73 70 68 64
47 49 51 52 54 57 58 59 60 61 64 66 68 73 79 86 92 98 103 109 112 116 117 116 117 117 113 108 102 99 94 91 89 86 82 79 76 73 70 67 67 65 62
51 54 53 52 52 53 55 57 59 62 66 71 76 83 89 96 102 107 113 118 119 120 119 119 118 114 107 99 93 90 87 84 81 78 75 72 69 67 64 62 60 58 56
56 59 56 55 56 57 59 61 64 68 74 80 86 91 98 105 108 116 121 122 125 123 123 120 113 105 100 92 88 84 81 78 74 71 69 66 63 61 59 58 57 55 53
61 62 62 59 58 60 63 67 72 77 83 90 95 101 107 112 117 123 124 128 127 125 122 116 108 99 93 89 86 81 78 74 70 68 65 62 59 57 56 54 54 53 51
65 65 65 61 61 66 70 75 80 85 91 97 103 109 113 118 125 125 129 128 127 123 119 108 102 94 88 83 80 77 73 69 65 64 63 60 57 54 51 48 46 47 48
68 69 66 64 68 73 78 84 88 92 98 103 108 112 117 124 126 129 126 127 125 120 110 103 96 91 85 79 76 73 70 64 62 61 60 58 54 51 48 45 41 40 38
72 74 72 73 77 80 85 90 93 98 103 110 113 118 122 127 128 128 126 125 120 113 107 97 92 86 80 75 72 70 66 62 57 55 54 52 50 47 45 42 39 37 35
75 76 75 78 82 86 91 95 100 106 110 114 119 123 124 127 128 127 125 121 114 108 100 93 86 80 75 71 67 65 63 59 54 53 51 48 46 44 42 39 37 34 32
79 78 79 83 87 92 96 101 105 110 115 121 122 124 123 124 126 124 120 116 109 101 94 87 81 76 71 67 63 61 59 57 54 52 48 44 42 40 38 36 34 30 29
81 80 84 88 92 96 101 106 110 116 121 123 124 123 124 124 124 121 116 110 102 95 88 81 76 71 67 62 59 57 55 56 55 52 47 41 38 36 34 32 30 27 25
82 85 89 93 96 101 107 112 118 121 123 123 121 121 124 123 120 116 111 103 97 90 83 76 70 66 62 59 57 54 53 54 53 49 44 38 36 34 31 29 26 24 22
86 90 94 98 103 108 113 119 122 121 122 122 121 123 122 119 116 112 104 98 91 84 76 70 66 62 58 56 55 53 52 51 48 44 41 38 34 31 29 26 23 21 20
90 94 98 104 109 114 120 121 120 121 121 123 121 119 117 115 111 105 99 91 84 76 70 66 64 59 56 54 53 53 50 46 43 40 38 36 33 31 28 24 21 19 18
96 100 105 109 115 119 123 121 120 119 122 121 118 115 113 110 104 99 92 85 77 72 67 64 60 57 54 52 51 50 47 43 40 37 36 35 32 29 27 24 20 18 16
101 106 111 115 119 123 122 118 118 119 121 120 116 112 108 103 98 92 86 77 72 69 65 61 58 54 52 51 50 47 43 40 38 36 35 34 31 28 26 24 21 18 16

GFSMW_250_spd_033.txt.gz
Wind_Speed
56 57 54 50 48 44 39 42 43 34 32 59 51 55 66 77 82 85 88 87 86 85 85 84 83 81 79 80 81 82 84 86 86 86 87 87 87 88 91 92 93 95 96
41 43 42 41 40 38 37 21 52 37 41 62 57 62 68 72 78 81 81 82 84 83 81 80 82 83 85 86 86 87 88 89 89 89 88 90 93 95 98 100 103 106 108
37 36 38 38 38 38 39 39 45 50 53 56 60 65 71 74 74 75 75 74 76 79 81 82 83 84 85 87 88 88 89 91 93 95 98 100 103 105 108 112 116 119 122
30 30 30 30 33 36 37 39 42 45 48 52 55 60 63 67 70 72 74 75 77 79 81 82 83 83 85 88 90 93 96 99 103 108 111 114 117 119 117 120 122 124 128
24 25 27 31 34 37 39 42 45 48 49 52 55 58 61 63 65 68 71 73 76 79 81 82 83 84 87 91 96 101 106 109 112 114 116 119 123 126 127 125 126 125 125
25 28 32 34 37 39 42 45 48 52 55 57 59 61 64 66 68 70 72 75 78 78 79 80 85 90 95 100 104 108 110 112 116 120 123 123 121 123 124 118 116 116 117
27 31 34 37 40 44 48 51 54 56 59 61 63 65 67 68 70 71 73 75 75 78 82 87 92 98 102 106 106 109 111 112 114 115 117 118 121 120 118 114 106 102 104
29 32 36 40 44 47 50 53 55 58 59 61 62 63 64 65 66 68 71 73 78 83 88 94 97 101 105 105 108 111 110 111 112 113 116 117 115 111 105 99 91 86 86
32 36 40 43 45 48 51 53 55 57 58 60 61 63 64 65 67 70 74 78 84 89 97 100 104 105 106 109 108 109 110 109 107 107 107 106 104 97 92 86 80 75 73
37 41 43 45 47 50 52 53 55 57 58 59 60 62 65 67 71 75 82 87 94 98 102 106 109 110 110 110 112 111 107 101 100 99 96 92 89 86 81 77 75 71 66
41 43 45 48 50 54 55 55 56 56 56 57 60 64 68 73 77 81 89 96 100 104 105 106 109 111 115 118 115 107 101 97 93 89 86 84 80 77 75 72 69 66 64
46 47 49 51 53 56 57 55 55 56 56 59 64 70 76 80 86 92 98 102 105 107 108 112 115 118 120 117 108 102 94 88 85 83 80 78 75 72 69 68 66 63 61
51 50 50 53 56 59 59 56 56 57 62 66 72 79 83 88 94 100 105 108 107 112 116 116 118 121 116 111 104 95 88 84 81 78 75 73 70 68 66 64 62 60 57
55 57 58 60 62 64 64 62 64 66 69 73 79 84 89 96 101 107 109 111 115 117 118 119 120 116 110 102 94 89 85 80 77 75 72 69 67 66 65 62 60 57 56
58 61 63 65 67 70 70 69 70 72 75 80 86 90 96 102 109 110 111 115 117 120 121 120 117 112 104 95 90 84 80 77 75 72 68 66 64 61 57 54 52 50 50
63 67 70 70 70 73 75 76 76 79 83 87 92 98 103 110 112 113 114 116 118 121 119 116 112 105 96 91 85 81 77 74 70 68 66 64 60 57 54 51 48 46 46
69 72 75 75 75 77 79 81 81 84 88 93 98 104 109 114 116 115 115 116 119 119 115 111 106 97 92 86 82 78 74 70 67 62 62 60 56 55 53 50 47 44 42
72 75 78 78 79 80 84 85 84 88 92 97 103 109 113 118 117 115 115 118 117 113 110 107 99 93 87 82 78 74 71 67 63 60 58 56 55 51 50 47 44 40 37
76 79 80 82 83 85 88 87 88 93 97 103 109 113 117 118 117 115 117 116 113 110 107 102 95 89 83 78 75 71 67 64 61 58 55 54 51 47 45 42 40 37 35
82 82 83 86 87 90 89 89 91 98 102 109 113 118 119 117 116 114 115 112 110 108 104 97 91 85 79 75 72 68 64 61 60 57 54 50 45 42 40 38 36 33 32
86 87 88 89 91 92 91 93 97 103 109 114 118 120 118 114 112 114 111 110 107 105 98 92 86 81 75 72 68 64 61 59 57 56 53 47 41 36 36 35 33 32 30
90 91 93 93 93 91 93 97 103 110 114 118 121 118 114 113 113 112 110 107 105 100 93 88 82 76 73 70 65 61 58 57 55 54 48 44 40 35 34 33 31 30 28
93 95 96 95 92 94 98 103 109 115 119 121 117 111 111 112 112 110 107 105 100 94 88 83 76 72 70 66 61 58 56 54 52 49 44 41 38 35 34 31 29 27 26
96 96 95 95 97 101 105 110 116 121 122 116 112 111 111 112 111 108 105 102 96 90 84 78 72 69 66 62 59 57 54 52 48 43 40 37 36 33 30 30 27 25 24
94 94 95 99 103 107 113 117 120 123 114 112 111 110 112 113 109 106 102 96 91 85 79 73 69 66 62 59 56 55 52 49 44 40 37 34 33 33 31 28 27 24 23
94 97 100 105 109 113 118 121 122 114 113 112 112 112 112 110 107 102 96 90 85 79 74 69 65 61 58 56 55 52 49 45 41 39 36 33 32 30 28 27 26 24 22

GFSMW_250_spd_036.txt.gz
Wind_Speed
52 47 47 47 48 49 52 48 43 39 26 36 34 50 55 53 60 69 76 82 83 88 91 95 96 96 86 87 87 86 85 86 85 86 86 86 84 85 84 88 87 87 88
43 41 44 46 41 38 36 35 31 33 37 41 47 58 61 65 66 73 82 85 89 92 91 89 85 86 85 84 85 85 86 85 81 81 83 85 89 92 91 95 100 100 102
36 35 34 33 33 35 37 37 36 37 44 47 52 60 62 66 66 70 72 74 76 78 79 81 83 83 84 85 84 83 83 85 89 90 94 97 101 104 108 108 110 113 116
29 28 30 30 28 27 29 32 34 36 40 45 49 54 58 61 65 68 71 74 77 79 80 80 80 80 79 79 82 86 90 94 97 99 100 105 108 112 113 116 120 120 125
21 18 20 24 26 29 33 36 39 43 47 51 55 59 63 66 68 71 71 71 71 71 70 71 73 75 80 85 89 94 97 101 102 104 106 109 109 112 115 117 117 119 122
17 20 24 27 31 34 37 40 43 46 50 53 56 59 62 64 65 66 67 67 67 67 70 74 79 83 88 92 96 100 103 103 106 108 109 110 111 113 114 116 117 119 121
21 24 26 29 32 36 39 41 45 48 51 54 57 60 62 63 64 63 63 62 66 71 77 80 84 90 95 98 100 99 102 106 109 110 111 110 107 107 107 109 108 106 107
21 24 27 32 35 38 41 44 47 51 54 55 57 59 60 60 59 59 62 66 71 76 80 84 92 96 97 98 99 101 105 108 109 109 109 105 102 101 101 99 96 94 95
22 26 29 33 38 41 45 47 49 53 55 56 57 60 61 61 62 64 68 72 77 83 86 93 98 99 99 100 104 108 112 113 109 107 105 101 99 97 95 92 89 84 79
27 30 33 39 42 44 47 51 53 55 57 59 60 61 61 61 65 68 72 78 82 88 94 99 101 101 101 104 108 113 113 111 110 105 100 97 94 91 87 83 78 74 70
31 34 40 45 47 49 53 57 59 61 61 63 64 64 65 67 71 75 80 84 90 95 100 103 105 104 104 107 112 113 111 109 105 98 94 91 86 83 79 75 70 68 65
34 39 44 48 52 56 60 64 66 66 66 68 69 69 70 70 74 80 86 92 96 102 107 108 107 106 107 111 113 113 110 105 97 91 86 83 80 76 72 69 65 63 61
39 43 47 52 55 59 64 67 71 70 70 72 71 73 73 75 79 87 92 98 103 108 110 109 107 108 111 113 112 109 104 95 89 84 80 76 72 70 67 63 61 59 58
44 47 52 56 59 64 69 72 75 74 76 77 77 79 79 81 85 93 99 104 109 111 112 108 110 111 113 111 108 103 94 87 83 78 74 71 68 66 64 61 59 57 55
49 53 58 63 65 68 73 77 80 80 82 82 83 86 85 87 92 98 104 110 113 114 111 111 111 112 111 107 104 94 89 83 78 73 70 68 65 63 60 57 56 55 55
56 60 64 67 71 75 79 81 85 85 85 87 88 88 88 92 98 104 110 115 115 113 110 112 111 110 106 103 97 89 83 78 73 71 68 64 62 60 59 55 54 53 52
62 65 70 75 78 80 84 87 88 88 89 90 90 88 92 98 104 110 114 119 115 112 114 113 111 105 101 97 91 84 79 73 71 69 66 62 59 58 57 56 53 48 45
68 71 75 78 81 85 88 90 90 91 93 92 90 93 98 104 110 115 119 116 112 112 112 111 107 103 99 91 86 80 74 70 68 66 62 59 56 55 55 53 49 44 41
72 76 79 83 86 89 92 91 93 94 92 92 95 99 104 109 115 118 118 115 114 112 110 108 104 101 94 87 82 76 72 69 66 62 59 56 54 53 51 47 44 39 38
77 81 84 87 90 92 91 93 95 93 93 97 101 105 110 114 118 118 116 114 111 110 107 103 100 96 89 83 78 73 71 67 62 58 56 54 52 49 44 42 40 37 36
83 85 88 92 94 92 93 94 93 94 98 102 106 111 115 119 118 115 112 111 112 107 103 101 98 91 84 79 73 70 68 63 59 56 54 52 49 43 40 38 37 36 33
86 91 94 95 94 95 94 94 97 101 106 109 112 116 120 117 113 111 111 110 107 104 102 100 94 86 80 75 70 67 63 59 56 54 53 51 45 41 38 35 34 33 31
91 94 95 96 95 94 94 96 100 105 110 114 117 119 117 115 113 110 111 109 105 104 99 95 89 81 75 71 67 63 59 55 52 51 51 47 42 39 37 35 33 31 28
94 93 92 93 93 95 100 104 107 110 115 117 119 117 114 111 111 111 108 107 104 100 95 89 82 76 72 67 64 59 55 51 50 50 48 43 41 38 34 31 30 29 27
90 91 92 94 98 102 105 109 113 116 118 120 117 112 110 111 112 108 106 103 100 95 88 83 77 72 67 64 59 55 51 49 48 48 44 40 38 37 35 33 29 28 25
91 93 97 101 104 108 111 113 116 118 119 116 113 114 114 111 107 103 101 99 95 88 82 78 72 68 64 61 55 52 49 48 47 46 41 38 36 33 32 32 29 27 26

GFSMW_250_spd_042.txt.gz
Wind_Speed
40 38 45 48 53 52 53 54 57 59 63 62 62 64 64 61 59 60 59 62 65 67 70 74 79 85 88 90 90 91 89 88 83 76 70 70 75 81 87 90 93 95 96
43 49 52 55 54 55 55 58 60 58 52 51 51 51 50 48 47 51 57 62 67 72 76 80 82 83 84 84 82 80 75 72 70 72 74 76 81 87 94 100 103 107 108
47 50 49 49 51 56 49 46 44 43 42 40 38 39 41 43 47 51 52 56 64 68 70 71 71 71 70 70 72 70 69 72 75 78 80 84 89 95 102 106 111 115 117
50 53 55 54 45 41 38 39 33 31 33 35 37 40 42 45 47 48 51 57 62 65 66 67 68 70 71 73 76 77 78 79 81 83 88 94 101 103 105 110 112 112 113
36 37 37 37 37 32 27 27 28 32 33 35 37 38 39 40 45 48 51 56 58 62 66 68 71 71 72 75 77 79 81 83 85 90 98 104 109 113 116 110 110 106 109
31 33 30 27 23 24 26 28 28 29 34 35 36 38 42 45 50 56 59 65 65 68 66 66 68 71 74 76 78 81 84 88 93 100 107 111 115 116 117 113 103 100 100
22 20 20 24 25 26 27 28 29 33 36 38 39 44 49 54 58 63 67 70 73 75 72 71 72 75 77 79 82 85 89 94 101 108 112 115 116 114 109 107 102 97 94
20 21 22 24 25 27 30 32 33 37 43 44 47 50 55 61 68 70 75 78 80 80 74 75 76 77 79 82 88 93 98 102 108 111 113 114 112 113 112 107 99 93 91
22 23 25 27 29 31 34 36 37 42 48 49 54 58 62 68 72 75 77 81 85 81 78 78 79 81 85 89 95 100 104 107 110 113 113 113 114 115 111 104 100 96 89
26 28 29 30 34 37 41 43 43 48 54 57 60 64 68 73 77 80 84 87 86 82 81 82 84 87 92 98 103 107 110 111 113 111 111 113 112 110 105 103 99 94 86
31 33 34 36 37 41 44 49 53 53 57 62 66 69 73 78 82 85 88 89 87 84 84 86 90 95 100 106 108 110 112 115 112 112 112 111 108 104 101 96 92 87 81
36 38 39 41 45 44 48 53 59 60 65 68 72 76 80 84 86 89 91 91 87 87 88 92 96 101 105 110 112 113 114 113 113 112 110 108 105 98 93 88 83 79 75
40 40 42 44 47 49 51 54 61 66 70 74 77 81 84 88 91 93 94 90 88 90 94 98 104 107 110 110 114 113 112 111 111 107 104 101 95 91 87 81 76 72 70
45 46 46 47 51 54 57 58 64 71 75 80 83 85 87 90 93 96 93 90 91 94 99 105 109 111 112 115 115 111 112 111 106 103 99 94 90 85 80 74 71 67 66
48 52 53 55 57 59 61 64 70 76 80 84 87 87 90 92 96 95 93 93 96 100 107 110 111 114 116 115 111 109 109 108 105 102 96 90 82 78 74 70 66 62 61
50 53 57 59 59 58 62 68 72 76 81 84 85 90 93 98 98 96 96 99 101 107 111 112 114 117 114 115 113 113 109 105 101 95 89 82 75 72 68 66 64 58 56
57 57 58 62 64 66 69 75 76 79 81 86 90 93 98 99 98 97 100 103 107 112 114 114 116 115 114 112 109 108 104 100 94 89 83 76 70 68 64 60 58 56 54
60 61 63 66 71 75 75 78 79 82 86 89 92 99 99 99 100 101 105 109 114 116 116 117 112 111 111 111 107 102 100 96 90 82 76 71 66 64 61 57 55 54 52
62 65 66 70 74 78 79 81 85 88 88 91 99 101 101 100 102 107 113 116 116 115 115 115 112 111 108 107 105 98 95 91 82 75 71 68 63 60 57 55 54 52 50
65 66 70 75 78 80 82 87 90 91 92 99 104 103 102 104 109 114 117 117 117 117 113 110 110 106 101 102 102 96 88 84 77 72 68 66 60 57 54 52 51 49 45
66 72 76 78 81 85 89 93 94 94 99 106 105 104 108 112 116 120 121 122 123 117 115 113 110 107 106 103 98 89 83 79 74 69 64 61 59 55 52 50 49 46 41
72 77 79 84 89 92 95 95 95 100 106 104 104 107 112 118 122 121 122 122 116 115 113 110 106 106 99 96 91 82 76 73 69 66 61 58 55 52 50 48 47 44 39
77 80 84 89 92 94 94 96 101 107 105 105 107 113 119 122 121 122 120 114 115 116 112 108 101 95 91 87 83 78 72 69 65 62 58 55 52 50 47 46 44 41 36
83 86 89 93 94 95 98 104 107 105 106 109 115 120 123 122 121 115 112 113 110 107 106 101 96 90 85 79 73 73 70 65 62 59 55 52 49 48 45 44 42 38 33
89 92 94 94 97 102 106 106 106 108 113 117 121 124 122 119 113 113 112 112 111 104 99 94 88 83 79 75 71 66 64 63 60 56 53 50 48 46 44 42 41 36 31
94 95 97 101 105 105 104 107 111 115 119 123 123 120 118 113 112 111 109 107 105 100 93 88 82 79 75 71 67 63 62 59 57 54 51 47 47 45 42 41 39 35 31

GFSMW_250_spd_045.txt.gz
Wind_Speed
30 26 33 39 36 46 49 47 50 54 57 61 65 64 67 70 72 69 66 64 58 57 61 65 67 68 70 72 75 78 75 75 76 75 74 76 76 78 79 81 82 84 86
32 34 35 42 40 43 46 49 52 54 56 59 63 67 65 60 57 53 51 51 51 52 52 52 55 60 64 67 71 73 75 76 79 79 79 76 77 80 81 83 88 92 98
34 36 35 42 47 48 50 53 53 54 57 58 59 53 51 47 45 46 44 43 41 45 52 58 63 65 69 73 75 75 75 76 78 78 78 76 74 74 80 87 94 101 106
40 44 44 44 48 50 51 49 52 53 49 51 48 41 41 42 40 40 42 44 47 52 57 62 67 73 76 80 80 77 78 78 77 77 77 79 83 85 86 93 101 108 114
36 40 44 42 43 42 40 41 42 44 42 40 40 41 41 38 38 42 46 50 55 60 64 68 72 76 81 83 80 80 79 79 77 78 83 89 94 100 103 102 107 112 116
30 34 37 33 33 35 34 31 33 39 39 39 41 41 40 41 45 47 51 56 59 62 66 72 76 81 84 88 82 79 79 79 83 89 94 99 104 109 113 113 110 107 106
25 29 32 31 26 26 29 32 35 38 42 40 43 45 45 47 50 53 57 62 66 70 77 79 82 86 92 90 83 80 83 87 92 97 103 109 113 114 114 114 107 101 101
26 23 23 25 26 28 32 34 36 39 43 45 46 50 52 56 58 60 64 68 74 78 85 86 89 93 96 89 86 88 91 95 102 108 112 113 113 113 114 113 111 104 100
24 24 25 28 31 34 36 36 35 42 47 51 55 56 58 62 62 66 70 76 82 86 88 90 93 99 94 90 90 94 98 104 110 114 113 113 112 112 112 113 110 101 93
27 28 30 32 34 36 38 41 42 46 50 54 58 60 63 66 69 74 79 83 87 87 89 92 97 98 93 94 95 99 105 111 116 114 114 113 111 113 114 113 106 99 93
30 31 32 34 37 39 43 45 47 50 54 58 61 63 66 70 74 80 83 85 85 87 91 97 99 96 96 97 102 107 111 114 114 114 111 111 113 112 111 109 104 97 89
32 35 36 38 39 42 45 49 51 53 55 59 64 66 70 73 76 80 81 83 88 90 98 101 99 97 98 102 109 114 114 114 113 110 110 111 111 108 105 101 95 89 81
36 38 39 41 43 45 48 50 53 58 60 61 64 67 71 76 77 79 85 86 88 96 102 101 99 99 104 109 115 112 112 112 109 109 110 108 106 104 97 90 84 79 75
40 42 42 44 45 47 50 54 57 60 64 69 72 73 75 77 82 85 90 90 95 103 104 101 100 105 110 114 115 114 113 108 109 109 108 108 102 93 87 83 78 73 70
46 45 46 51 54 55 56 59 61 65 70 74 76 76 78 83 87 93 93 96 101 108 105 103 106 112 116 116 116 113 108 108 108 105 103 99 91 83 83 79 74 70 67
48 51 52 55 59 60 61 63 66 69 74 78 79 80 85 91 94 96 98 101 109 108 106 108 113 118 118 116 114 112 110 107 104 101 99 94 89 84 81 75 70 67 64
54 58 60 61 61 64 67 68 72 74 78 79 83 89 94 97 98 99 103 109 110 108 109 113 119 120 118 113 110 112 109 105 105 100 95 92 87 79 75 68 65 63 60
57 61 62 64 67 69 72 73 75 78 79 84 89 94 99 99 99 104 110 111 109 112 116 121 123 120 116 115 114 112 108 104 100 96 89 84 79 73 70 66 62 59 56
59 60 63 67 69 71 75 78 80 81 85 90 94 96 97 101 107 110 109 110 114 120 123 122 121 119 115 113 112 109 103 98 94 86 80 78 73 69 65 63 61 56 52
60 64 67 70 73 76 79 82 85 89 93 96 99 99 104 109 111 109 111 116 121 122 123 120 116 115 113 111 109 105 98 89 86 79 74 73 68 64 62 59 57 53 50
63 65 68 73 78 81 84 89 92 94 97 99 101 106 110 109 109 113 120 123 123 121 118 116 113 111 109 105 102 99 90 82 79 76 72 68 65 61 58 56 53 49 47
66 70 74 78 81 86 89 93 96 98 99 103 109 109 107 110 115 120 123 125 122 116 114 114 112 107 103 97 92 88 85 79 75 72 67 63 61 58 55 53 49 47 45
73 77 81 85 89 91 93 96 97 99 105 108 105 107 113 118 122 123 122 119 116 113 111 108 106 102 98 91 84 81 80 76 70 66 63 60 58 54 51 50 46 44 43
77 82 86 90 93 96 97 98 103 108 106 105 109 116 120 122 121 120 117 113 113 111 107 101 96 94 88 83 79 76 73 70 66 61 60 57 54 50 48 46 44 43 40
82 86 89 92 95 96 98 105 107 104 106 111 118 123 121 119 118 115 113 113 108 105 101 96 89 86 83 79 75 71 67 65 63 59 55 52 50 47 45 43 42 41 39
88 90 93 95 96 99 106 106 106 108 113 120 124 121 118 118 114 112 110 111 105 100 94 88 82 81 76 72 70 67 63 61 59 56 53 49 47 44 42 41 39 38 37

GFSMW_250_spd_048.txt.gz
Wind_Speed
44 45 37 34 35 39 40 40 38 43 47 54 53 55 58 59 62 68 71 76 76 73 72 65 61 60 55 56 58 63 67 72 76 78 83 83 80 80 82 82 80 81 80
30 39 41 40 30 35 35 43 45 50 51 49 53 57 57 58 61 66 67 65 65 63 61 59 58 56 59 62 65 68 72 76 80 81 87 83 81 81 80 80 81 85 87
25 28 31 35 38 41 39 42 49 55 55 52 52 54 59 58 57 59 60 58 58 58 55 56 57 59 63 68 70 74 78 80 85 86 89 81 76 75 80 84 89 94 98
31 32 34 37 36 37 38 43 46 47 49 51 48 52 54 54 52 54 54 56 56 55 58 58 62 65 71 75 78 82 83 86 90 93 95 88 82 80 81 88 93 98 106
34 35 35 38 42 42 42 44 45 46 47 49 48 48 47 47 50 54 56 56 56 58 62 64 67 70 74 79 84 84 86 91 94 98 95 90 89 90 93 93 99 107 113
37 39 40 42 40 40 40 36 40 42 42 42 42 44 46 50 53 55 58 60 62 66 68 70 72 76 80 83 85 86 90 94 98 97 93 90 92 96 102 108 108 106 106
37 34 33 31 32 34 35 35 32 36 38 42 44 48 50 53 57 59 62 63 65 68 71 71 74 78 82 84 86 90 92 98 98 94 93 96 102 107 112 111 107 103 103
31 31 30 30 29 29 29 29 34 39 42 46 48 50 51 53 57 61 64 66 70 72 71 74 75 78 82 87 91 94 98 102 97 96 99 105 111 114 113 109 106 104 106
29 29 29 28 29 29 29 33 38 43 46 48 51 52 54 56 60 63 65 66 68 70 73 77 79 82 88 93 95 97 104 103 100 101 106 112 116 114 109 108 109 110 107
28 29 29 31 31 31 31 38 42 44 46 49 51 54 57 60 62 65 67 70 73 74 75 80 84 91 95 98 101 102 108 105 104 107 113 117 114 111 108 109 110 109 106
27 28 31 33 35 36 38 39 41 44 47 51 54 57 60 64 67 71 75 76 75 77 81 87 90 95 97 101 105 108 107 106 109 114 116 113 109 109 109 110 110 108 101
27 29 32 34 37 40 42 42 45 48 52 56 58 61 65 68 70 75 77 76 78 83 89 93 96 97 100 107 110 107 107 112 116 113 113 109 108 109 109 108 106 103 94
28 30 32 36 39 43 45 49 53 56 60 63 64 65 67 71 74 76 76 80 84 89 93 97 99 103 108 110 107 110 114 114 112 109 108 110 110 110 108 105 102 98 90
30 32 36 38 42 45 47 51 54 59 62 64 67 71 72 71 75 77 81 87 90 93 96 99 105 109 107 108 112 117 115 112 110 110 112 111 110 110 106 99 94 88 82
33 36 39 41 45 48 52 55 58 59 62 66 69 70 72 76 80 84 88 93 95 96 101 106 108 106 110 115 115 115 114 113 111 111 111 110 109 105 100 93 86 79 76
38 41 43 47 50 52 55 56 59 63 65 67 71 75 79 83 86 90 94 97 98 104 107 102 107 113 115 115 115 115 113 111 111 112 111 108 103 101 93 86 80 74 72
43 48 50 50 53 55 59 62 65 66 68 72 77 82 87 89 93 96 97 101 107 105 104 111 117 116 115 116 116 113 113 115 114 111 109 103 97 91 85 81 77 71 66
49 52 53 54 57 60 62 65 67 71 75 79 83 88 91 94 95 98 104 107 103 106 112 119 118 117 117 115 115 116 116 114 112 106 99 93 87 83 80 75 71 66 62
53 54 57 60 61 62 65 68 72 76 80 85 89 92 96 96 98 105 106 105 108 113 120 121 119 117 115 115 115 114 113 109 104 97 89 85 80 76 73 69 65 62 60
54 58 60 61 65 68 71 74 79 83 88 92 94 97 98 99 105 108 107 110 114 119 125 120 116 114 115 115 113 109 106 98 93 88 83 78 74 71 68 65 62 61 57
58 60 63 66 69 72 76 80 84 89 92 94 96 97 100 106 109 108 111 115 121 124 120 115 114 115 114 111 108 103 96 90 86 81 76 71 68 65 62 60 59 57 53
61 63 67 69 73 76 81 85 89 92 94 97 98 100 104 110 109 112 116 122 123 118 116 113 113 114 112 109 101 95 92 87 82 76 70 66 64 62 58 57 55 52 49
64 68 71 75 78 82 86 89 92 95 97 98 101 104 109 110 113 117 123 123 119 115 113 113 112 110 107 101 93 89 85 80 75 71 66 63 59 57 55 53 50 48 46
69 72 75 79 84 88 90 92 95 96 98 101 104 109 109 114 119 123 123 118 115 114 113 110 108 105 98 93 88 82 78 74 70 67 61 58 56 53 50 48 46 44 42
73 76 80 84 88 90 92 95 96 98 100 105 108 109 114 119 123 122 118 113 114 112 108 106 102 97 91 84 78 74 72 69 64 62 57 54 51 49 48 46 43 41 40
77 81 85 88 91 92 95 96 99 100 106 109 110 115 119 122 122 118 113 114 111 109 107 102 96 89 82 74 73 70 67 65 61 60 55 52 50 47 46 44 42 40 39